{"data":{"norad_id":53078,"epoch":"2026-09-19T22:13:03.283680Z","epoch_age_seconds":121932,"freshness":"FRESH","line1":"1 53078U 22077AM  26262.92573245 -.00001249  00000+0 -36401-4 0  9991","line2":"2 53078  97.2859  77.7083 0001831  90.2753 269.8700 15.33423031230200","mean_motion":15.33423031,"eccentricity":0.0001831,"inclination_deg":97.2859,"raan_deg":77.7083,"arg_perigee_deg":90.2753,"mean_anomaly_deg":269.87,"bstar":-3.6401e-5,"rev_number":23020,"period_min":93.907550029487,"perigee_km":464.35544973772,"apogee_km":466.8616293543,"semimajor_km":6843.745539546,"source":"CELESTRAK","updated_at":"2026-09-20T09:00:40.156852Z"}}